Terminal Aerodrome Forecast
Issued by NWS

Home | Current Version | Previous Version | Text Only | Print | Product List | Glossary Off
Versions: 1 2 3 4 5 6 7 8 9 10 11 12 13 14 15 16 17 18 19 20 21 22 23 24 25 26 27 28 29 30

000
FTUS43 KLOT 061700
TAFDPA
TAF
KDPA 061733Z 0618/0718 20016G24KT P6SM FEW090 SCT250
     FM070100 23011KT P6SM FEW030 SCT150
     FM071500 25012G19KT P6SM SCT080=

USA.gov is the U.S. government's official web portal to all federal, state and local government web resources and services.